Location: 22
(39.7117°N, 89.5929°W)
Time: 09:03:37
(UTC-05:00)

S-56A Canister/Altair - Pass Details

Date: 16 February 2023
Orbit: 638 x 2493 km, 38.9° (Epoch: 25 March)

Event Time Altitude Azimuth Distance (km) Brightness Sun altitude
Rises 08:38:32 0° 265° (W) 3,472 10.4 18.1°
Reaches altitude 10° 08:41:19 10° 265° (W) 2,343 9.6 18.6°
Maximum altitude 08:46:31 82° 178° (S) 679 7.7 19.4°
Drops below altitude 10° 08:50:57 10° 91° (E) 2,020 10.7 20.1°
Sets 08:53:13 0° 91° (E) 2,950 11.4 20.4°
